DW6169 Weather Reports


Display with metric or nautical units.
time (UTC)temp
F
wind
direction
speed
MPH
gust
MPH
rain 1hr
in
rain 24hr
in
rain mn
in
humidity
%
barometer
mb
20260502184605 95 190 7.0 15.0 0.00 0.00 0.00 43 1011.7
20260502184100 95 238 3.0 11.0 0.00 0.00 0.00 44 1011.7
20260502183559 94 312 4.0 14.0 0.00 0.00 0.00 45 1011.7
20260502183102 94 261 2.0 14.0 0.00 0.00 0.00 46 1011.9
20260502182558 94 230 3.0 17.0 0.00 0.00 0.00 45 1012.0
20260502182059 94 238 7.0 18.0 0.00 0.00 0.00 45 1012.0
20260502181601 93 213 6.0 18.0 0.00 0.00 0.00 45 1012.1
20260502181101 92 229 5.0 18.0 0.00 0.00 0.00 49 1012.2
20260502180601 91 119 3.0 12.0 0.00 0.00 0.00 52 1012.1
20260502180105 91 150 1.0 14.0 0.00 0.00 0.00 57 1012.1
20260502164059 89 243 1.0 6.0 0.00 0.00 0.00 65 1012.5
20260502163556 88 236 1.0 4.0 0.00 0.00 0.00 67 1012.5
20260502163100 88 0 1.0 9.0 0.00 0.00 0.00 67 1012.6
20260502162600 88 0 1.0 9.0 0.00 0.00 0.00 67 1012.7
20260502162100 88 147 1.0 9.0 0.00 0.00 0.00 67 1012.7
20260502161558 88 246 1.0 6.0 0.00 0.00 0.00 68 1012.8
20260502161058 88 138 1.0 7.0 0.00 0.00 0.00 68 1012.8
20260502160557 88 236 1.0 9.0 0.00 0.00 0.00 68 1012.8
20260502152102 89 205 2.0 7.0 0.00 0.00 0.00 65 1013.0
20260502151612 88 192 1.0 12.0 0.00 0.00 0.00 66 1013.1
20260502151058 88 181 1.0 12.0 0.00 0.00 0.00 65 1013.1
20260502150601 88 311 3.0 12.0 0.00 0.00 0.00 65 1013.1
20260502140103 85 321 1.0 5.0 0.00 0.00 0.00 72 1012.7
20260502130602 81 225 0.0 6.0 0.00 0.00 0.00 78 1012.7
20260502123559 79 246 0.0 3.0 0.00 0.00 0.00 85 1012.9
20260502123101 78 0 0.0 3.0 0.00 0.00 0.00 85 1012.9
20260502122604 78 0 0.0 0.0 0.00 0.00 0.00 85 1012.8
20260502122101 78 0 0.0 0.0 0.00 0.00 0.00 86 1012.8
20260502121601 77 0 0.0 2.0 0.00 0.00 0.00 86 1012.8
20260502121103 77 0 0.0 2.0 0.00 0.00 0.00 86 1012.8
20260502120600 77 0 0.0 0.0 0.00 0.00 0.00 86 1012.8
20260502115558 76 0 0.0 0.0 0.00 0.00 0.00 86 1012.7
20260502115101 75 0 0.0 0.0 0.00 0.00 0.00 86 1012.8
20260502114602 75 0 0.0 0.0 0.00 0.00 0.00 86 1012.8
20260502114100 75 0 0.0 0.0 0.00 0.00 0.00 85 1012.7
20260502113600 75 0 0.0 0.0 0.00 0.00 0.00 85 1012.8
20260502113125 74 0 0.0 0.0 0.00 0.00 0.00 85 1012.9
20260502112559 74 0 0.0 0.0 0.00 0.00 0.00 85 1013.0
20260502112101 74 0 0.0 0.0 0.00 0.00 0.00 85 1013.0
20260502111602 74 0 0.0 0.0 0.00 0.00 0.00 84 1012.9
20260502111059 74 0 0.0 0.0 0.00 0.00 0.00 84 1012.9
20260502110559 74 0 0.0 0.0 0.00 0.00 0.00 84 1013.0
20260502105559 74 0 0.0 0.0 0.00 0.00 0.00 84 1012.8
20260502105100 74 0 0.0 0.0 0.00 0.00 0.00 84 1012.9
20260502104610 74 0 0.0 0.0 0.00 0.00 0.00 85 1012.9
20260502104058 74 0 0.0 0.0 0.00 0.00 0.00 85 1012.7
20260502103601 74 0 0.0 0.0 0.00 0.00 0.00 85 1012.7
20260502103100 74 0 0.0 0.0 0.00 0.00 0.00 85 1012.7
20260502102558 74 0 0.0 0.0 0.00 0.00 0.00 85 1012.7
20260502102057 74 0 0.0 0.0 0.00 0.00 0.00 85 1012.7
20260502101611 74 0 0.0 0.0 0.00 0.00 0.00 85 1012.7
20260502101058 74 0 0.0 0.0 0.00 0.00 0.00 85 1012.7
20260502100557 74 0 0.0 0.0 0.00 0.00 0.00 85 1012.8
20260502091059 75 0 0.0 0.0 0.00 0.00 0.00 85 1012.7
20260502090556 75 0 0.0 0.0 0.00 0.00 0.00 85 1012.7
20260502090107 75 0 0.0 0.0 0.00 0.00 0.00 85 1012.5
20260502071058 75 0 0.0 0.0 0.00 0.00 0.00 83 1012.5
20260502070555 75 0 0.0 0.0 0.00 0.00 0.00 83 1012.5
20260502070115 75 0 0.0 0.0 0.00 0.00 0.00 83 1012.6
20260502065557 75 0 0.0 0.0 0.00 0.00 0.00 83 1012.7
20260502065056 75 0 0.0 0.0 0.00 0.00 0.00 83 1012.6
20260502064557 75 0 0.0 0.0 0.00 0.00 0.00 83 1012.6
20260502064056 76 0 0.0 0.0 0.00 0.00 0.00 83 1012.7
20260502063556 76 0 0.0 0.0 0.00 0.00 0.00 83 1012.6
20260502063113 76 0 0.0 0.0 0.00 0.00 0.00 83 1012.7
20260502062601 76 0 0.0 0.0 0.00 0.00 0.00 83 1012.8
20260502062056 76 0 0.0 0.0 0.00 0.00 0.00 83 1012.9
20260502061559 76 0 0.0 0.0 0.00 0.00 0.00 83 1012.8
20260502061055 76 0 0.0 0.0 0.00 0.00 0.00 82 1012.8
20260502060558 76 0 0.0 0.0 0.00 0.00 0.00 82 1012.8
20260502060058 76 0 0.0 0.0 0.00 0.00 0.00 82 1012.8
20260502055559 76 0 0.0 0.0 0.00 0.00 0.00 82 1012.7
20260502055059 76 0 0.0 0.0 0.00 0.00 0.00 82 1012.8
20260502054609 76 0 0.0 1.0 0.00 0.00 0.00 82 1012.7
20260502054059 76 0 0.0 1.0 0.00 0.00 0.00 82 1012.7
20260502053556 76 0 0.0 1.0 0.00 0.00 0.00 81 1012.7
20260502053059 76 0 0.0 1.0 0.00 0.00 0.00 81 1012.7
20260502052556 77 0 0.0 1.0 0.00 0.00 0.00 81 1012.8
20260502052057 77 0 0.0 0.0 0.00 0.00 0.00 81 1012.9
20260502051557 77 0 0.0 0.0 0.00 0.00 0.00 81 1012.9
20260502051056 77 0 0.0 0.0 0.00 0.00 0.00 81 1013.0
20260502050557 77 0 0.0 0.0 0.00 0.00 0.00 81 1013.0
20260502050057 77 0 0.0 1.0 0.00 0.00 0.00 81 1013.2
20260502045601 77 0 0.0 1.0 0.00 0.00 0.00 81 1013.1
20260502045059 77 0 0.0 3.0 0.00 0.00 0.00 81 1013.2
20260502044556 77 0 0.0 3.0 0.00 0.00 0.00 81 1013.2
20260502044058 77 0 0.0 3.0 0.00 0.00 0.00 81 1013.3
20260502043556 77 0 0.0 0.0 0.00 0.00 0.00 81 1013.3
20260502043111 78 0 0.0 0.0 0.00 0.00 0.00 81 1013.4
20260502042600 78 0 0.0 1.0 0.00 0.00 0.00 81 1013.4
20260502042058 78 0 0.0 1.0 0.00 0.00 0.00 81 1013.5
20260502041624 78 115 0.0 0.0 0.00 0.00 0.00 81 1013.5
20260502041101 78 0 0.0 0.0 0.00 0.00 0.00 81 1013.6
20260502040559 78 0 0.0 0.0 0.00 0.00 0.00 81 1013.7
20260502040104 78 0 0.0 0.0 0.00 0.00 0.00 80 1013.8
20260502035559 78 0 0.0 0.0 0.00 0.00 0.00 80 1013.7
20260502035101 78 0 0.0 0.0 0.00 0.00 0.00 80 1013.7
20260502034601 78 0 0.0 0.0 0.00 0.00 0.00 80 1013.6
20260502034101 78 0 0.0 0.0 0.00 0.00 0.00 80 1013.6
20260502033601 78 0 0.0 0.0 0.00 0.00 0.00 80 1013.7
20260502033107 78 0 0.0 0.0 0.00 0.00 0.00 80 1013.6
20260502032559 78 0 0.0 0.0 0.00 0.00 0.00 80 1013.6
20260502032058 78 0 0.0 0.0 0.00 0.00 0.00 80 1013.7
20260502031602 78 0 0.0 1.0 0.00 0.00 0.00 79 1013.6
20260502031102 78 0 0.0 1.0 0.00 0.00 0.00 79 1013.6
20260502030600 78 0 0.0 1.0 0.00 0.00 0.00 79 1013.6
20260502030119 78 0 0.0 1.0 0.00 0.00 0.00 79 1013.6
20260502025559 78 0 0.0 0.0 0.00 0.00 0.00 79 1013.6
20260502025059 78 0 0.0 2.0 0.00 0.00 0.00 78 1013.6
20260502024606 78 0 0.0 2.0 0.00 0.00 0.00 78 1013.6
20260502024059 79 0 0.0 2.0 0.00 0.00 0.00 78 1013.5
20260502023559 79 0 0.0 3.0 0.00 0.00 0.00 78 1013.3
20260502023137 79 0 0.0 3.0 0.00 0.00 0.00 78 1013.2
20260502022603 79 0 0.0 4.0 0.00 0.00 0.00 78 1013.2
20260502022059 79 282 0.0 4.0 0.00 0.00 0.00 78 1013.1
20260502021559 79 0 0.0 4.0 0.00 0.00 0.00 78 1013.1
20260502021100 79 0 0.0 2.0 0.00 0.00 0.00 77 1013.1
20260502020559 79 0 0.0 6.0 0.00 0.00 0.00 77 1013.1
20260502020104 79 0 0.0 6.0 0.00 0.00 0.00 77 1013.1
20260502015601 79 0 0.0 3.0 0.00 0.00 0.00 77 1013.1
20260502015100 79 0 0.0 3.0 0.00 0.00 0.00 76 1013.0
20260502014608 79 0 0.0 3.0 0.00 0.00 0.00 76 1013.0
20260502014058 79 0 0.0 3.0 0.00 0.00 0.00 76 1013.0
20260502013559 79 0 0.0 3.0 0.00 0.00 0.00 75 1013.0
20260502013103 79 259 0.0 3.0 0.00 0.00 0.00 75 1012.9
20260502012559 80 0 0.0 3.0 0.00 0.00 0.00 75 1012.9
20260502012059 80 218 0.0 3.0 0.00 0.00 0.00 74 1012.8
20260502011611 80 0 0.0 4.0 0.00 0.00 0.00 74 1012.6
20260502011108 80 173 0.0 4.0 0.00 0.00 0.00 74 1012.5
20260502010558 80 0 0.0 5.0 0.00 0.00 0.00 74 1012.5
20260502010057 80 0 0.0 5.0 0.00 0.00 0.00 74 1012.4
20260502005558 80 334 0.0 4.0 0.00 0.00 0.00 73 1012.3
20260502005101 80 181 0.0 4.0 0.00 0.00 0.00 73 1012.2
20260502004601 80 0 0.0 7.0 0.00 0.00 0.00 73 1012.2
20260502004058 80 0 0.0 7.0 0.00 0.00 0.00 72 1012.0
20260502003559 80 0 0.0 7.0 0.00 0.00 0.00 72 1012.1
20260502003102 80 311 0.0 4.0 0.00 0.00 0.00 72 1012.0
20260502002603 80 0 0.0 7.0 0.00 0.00 0.00 71 1011.9
20260502002059 80 0 0.0 7.0 0.00 0.00 0.00 71 1011.5
20260502001603 80 0 0.0 5.0 0.00 0.00 0.00 70 1011.4
20260502001059 81 114 0.0 5.0 0.00 0.00 0.00 70 1011.4
20260502000558 81 263 0.0 3.0 0.00 0.00 0.00 69 1011.3
20260502000109 81 0 0.0 4.0 0.00 0.00 0.00 69 1011.3
20260501235557 81 211 1.0 4.0 0.00 0.00 0.00 68 1011.4
20260501235102 81 161 0.0 2.0 0.00 0.00 0.00 68 1011.3
20260501234559 81 0 0.0 3.0 0.00 0.00 0.00 68 1011.4
20260501234058 81 0 0.0 3.0 0.00 0.00 0.00 68 1011.4
20260501233558 81 0 0.0 5.0 0.00 0.00 0.00 68 1011.4
20260501233118 81 0 0.0 5.0 0.00 0.00 0.00 68 1011.3
20260501232558 82 155 1.0 6.0 0.00 0.00 0.00 67 1011.3
20260501232058 82 0 0.0 6.0 0.00 0.00 0.00 67 1011.3
20260501231627 82 0 1.0 6.0 0.00 0.00 0.00 66 1011.3
20260501231101 82 236 0.0 5.0 0.00 0.00 0.00 65 1011.3
20260501230600 83 0 1.0 5.0 0.00 0.00 0.00 65 1011.3
20260501230122 83 0 0.0 5.0 0.00 0.00 0.00 65 1011.3
20260501225558 83 124 0.0 7.0 0.00 0.00 0.00 65 1011.2
20260501225058 83 346 0.0 11.0 0.00 0.00 0.00 65 1011.2
20260501224609 83 98 0.0 11.0 0.00 0.00 0.00 65 1011.3
20260501224057 84 324 1.0 7.0 0.00 0.00 0.00 65 1011.3
20260501223557 84 139 1.0 10.0 0.00 0.00 0.00 66 1011.2
20260501223059 84 0 2.0 10.0 0.00 0.00 0.00 65 1011.1
20260501222558 84 192 2.0 8.0 0.00 0.00 0.00 66 1011.2
20260501222058 85 296 1.0 10.0 0.00 0.00 0.00 65 1011.2
20260501221612 85 102 1.0 10.0 0.00 0.00 0.00 65 1011.2
20260501221058 85 0 1.0 6.0 0.00 0.00 0.00 64 1011.1
20260501220558 85 223 1.0 6.0 0.00 0.00 0.00 64 1011.1
20260501220106 86 0 0.0 8.0 0.00 0.00 0.00 63 1011.1
20260501215558 86 126 1.0 10.0 0.00 0.00 0.00 63 1011.1
20260501215102 86 174 1.0 13.0 0.00 0.00 0.00 63 1011.1
20260501214601 86 119 2.0 13.0 0.00 0.00 0.00 62 1011.1
20260501214057 86 157 1.0 8.0 0.00 0.00 0.00 62 1011.1
20260501213557 87 134 1.0 9.0 0.00 0.00 0.00 61 1011.0
20260501213105 87 183 0.0 10.0 0.00 0.00 0.00 61 1011.0
20260501212558 87 157 0.0 10.0 0.00 0.00 0.00 62 1010.9
20260501212058 87 167 4.0 10.0 0.00 0.00 0.00 61 1011.1
20260501211601 88 215 2.0 9.0 0.00 0.00 0.00 60 1011.1
20260501211058 88 0 1.0 9.0 0.00 0.00 0.00 61 1011.2
20260501210559 88 192 0.0 15.0 0.00 0.00 0.00 62 1011.2
20260501205602 88 238 3.0 14.0 0.00 0.00 0.00 61 1011.3
20260501205102 89 180 1.0 9.0 0.00 0.00 0.00 60 1011.3
20260501204601 89 135 2.0 9.0 0.00 0.00 0.00 60 1011.3
20260501204101 89 188 1.0 9.0 0.00 0.00 0.00 60 1011.3
20260501203600 89 123 2.0 8.0 0.00 0.00 0.00 60 1011.4
20260501203101 89 102 2.0 10.0 0.00 0.00 0.00 59 1011.4
20260501202601 89 239 0.0 10.0 0.00 0.00 0.00 59 1011.4
20260501202104 89 200 1.0 10.0 0.00 0.00 0.00 59 1011.5
20260501201559 89 137 1.0 9.0 0.00 0.00 0.00 60 1011.5
20260501201058 90 117 2.0 8.0 0.00 0.00 0.00 58 1011.6
20260501200559 90 61 1.0 7.0 0.00 0.00 0.00 57 1011.6
20260501200100 90 136 0.0 8.0 0.00 0.00 0.00 58 1011.6
20260501195559 90 347 1.0 8.0 0.00 0.00 0.00 57 1011.7
20260501195100 90 0 1.0 8.0 0.00 0.00 0.00 58 1011.8
20260501194602 89 212 1.0 9.0 0.00 0.00 0.00 59 1011.9
20260501194059 89 0 1.0 9.0 0.00 0.00 0.00 59 1012.0
20260501193600 89 180 1.0 8.0 0.00 0.00 0.00 57 1012.0
20260501193057 89 190 1.0 9.0 0.00 0.00 0.00 58 1012.0
20260501192559 89 238 2.0 9.0 0.00 0.00 0.00 57 1012.1
20260501192059 89 184 1.0 10.0 0.00 0.00 0.00 59 1012.2
20260501191601 89 169 2.0 12.0 0.00 0.00 0.00 59 1012.2
20260501191102 89 111 2.0 12.0 0.00 0.00 0.00 59 1012.4
20260501190559 90 222 3.0 11.0 0.00 0.00 0.00 57 1012.4
20260501190100 90 90 0.0 6.0 0.00 0.00 0.00 57 1012.4
20260501185559 90 272 1.0 6.0 0.00 0.00 0.00 58 1012.5
20260501185101 90 174 1.0 4.0 0.00 0.00 0.00 56 1012.5